Zurück zum Katalog

STARLINK-35265

AktivKommunikationVLEO
NORAD 65748·PAYLOAD·🇺🇸 United States

Gestartet Sep 25, 2025 von Cape Canaveral Space Force Station

Loading…

Nächste Überflüge (nächste 24 Stunden)

TLE

AktuellSource: CelesTrak SupGP

Epoche: Sep 15, 2026, 02:51 UTC

1 65748C 25216Q   26258.11923611  .00020387  00000+0  60277-3 0  2585
2 65748  53.1574 170.5304 0001195  81.3275 188.7708 15.34358121    12

Verfolge STARLINK-35265 in Echtzeit mit AllMySat

Download on the App Store